Hourly Data Report for September 21, 2006

TORONTO CITY
ONTARIO

43°40'00.000" N
79°24'00.000" W
112.50 m
6158355
71508
XTO

Download Data

Hourly Data (September 2006)
Hourly Data Report for September 21, 2006
TIME
LST
Temp Definition
°C
Dew Point Definition
°C
Rel Hum Definition
%
Precip. Amount Definition
mm

Wind Dir Definition
10's deg

Wind Spd Definition
km/h
Visibility Definition
km
Stn Press Definition
kPa
Hmdx Definition


Wind Chill Definition


Weather Definition


00:00 9.6 6.4 80   LegendMM LegendMM   100.12     LegendNANA
01:00 9.8 7.2 84   LegendMM LegendMM   100.14     LegendNANA
02:00 8.9 6.6 85   LegendMM LegendMM   100.17     LegendNANA
03:00 9.1 7.4 89   LegendMM LegendMM   100.17     LegendNANA
04:00 8.7 6.7 87   LegendMM LegendMM   100.21     LegendNANA
05:00 8.3 6.5 88   LegendMM LegendMM   100.24     LegendNANA
06:00 8.1 6.3 88   LegendMM LegendMM   100.30     LegendNANA
07:00 8.5 6.6 88   LegendMM LegendMM   100.36     LegendNANA
08:00 10.6 7.2 79   LegendMM LegendMM   100.42     LegendNANA
09:00 12.7 7.6 71   LegendMM LegendMM   100.44     LegendNANA
10:00 14.6 7.3 62   LegendMM LegendMM   100.45     LegendNANA
11:00 15.8 6.4 54   LegendMM LegendMM   100.47     LegendNANA
12:00 16.6 7.3 54   LegendMM LegendMM   100.45     LegendNANA
13:00 16.1 6.2 52   LegendMM LegendMM   100.45     LegendNANA
14:00 17.7 6.2 47   LegendMM LegendMM   100.42     LegendNANA
15:00 16.8 5.7 48   LegendMM LegendMM   100.38     LegendNANA
16:00 17.3 6.3 48   LegendMM LegendMM   100.39     LegendNANA
17:00 17.0 5.8 48   LegendMM LegendMM   100.39     LegendNANA
18:00 16.3 5.3 48   LegendMM LegendMM   100.42     LegendNANA
19:00 14.9 5.5 53   LegendMM LegendMM   100.49     LegendNANA
20:00 13.0 6.0 62   LegendMM LegendMM   100.52     LegendNANA
21:00 11.8 6.5 70   LegendMM LegendMM   100.57     LegendNANA
22:00 12.6 7.2 70   LegendMM LegendMM   100.60     LegendNANA
23:00 10.9 7.3 78   LegendMM LegendMM   100.64     LegendNANA

Notes on Data Quality.

Legend

  • E = Estimated
  • M = Missing
  • NA = Not Available*
  • [empty] = Indicates an unobserved value
Date modified: